This is the latest recevied weather packets stored in our database for station/object SA7AHC. If no packets are shown the sender has not sent any weather packets the latest 10 day(s).
| Time | Temp. | Humidity | Pressure | Rain* | Wind** | Luminosity | Snow |
|---|---|---|---|---|---|---|---|
| 1777385311 | 12.78° C | 35% | 1028 hPa | 0 mm | - | 575 W/m² | - |
| 1777384714 | 12.78° C | 29% | 1028.1 hPa | 0 mm | - | 582 W/m² | - |
| 1777384108 | 12.22° C | 31% | 1028.2 hPa | 0 mm | - | 519 W/m² | - |
| 1777383509 | 12.22° C | 32% | 1028.2 hPa | 0 mm | - | 613 W/m² | - |
| 1777382899 | 11.11° C | 28% | 1028.1 hPa | 0 mm | - | 636 W/m² | - |
| 1777382300 | 11.67° C | 32% | 1028.1 hPa | 0 mm | - | 642 W/m² | - |
| 1777381698 | 11.67° C | 28% | 1028.1 hPa | 0 mm | - | 654 W/m² | - |
| 1777381092 | 12.22° C | 34% | 1028.2 hPa | 0 mm | - | 673 W/m² | - |
| 1777380484 | 11.67° C | 30% | 1028.3 hPa | 0 mm | - | 691 W/m² | - |
| 1777379887 | 11.11° C | 31% | 1028.3 hPa | 0 mm | - | 724 W/m² | - |
| 1777379282 | 10.56° C | 29% | 1028.2 hPa | 0 mm | - | 703 W/m² | - |
| 1777378686 | 11.67° C | 33% | 1028.3 hPa | 0 mm | - | 715 W/m² | - |
| 1777378085 | 12.22° C | 34% | 1028.4 hPa | 0 mm | - | 731 W/m² | - |
| 1777377482 | 11.11° C | 30% | 1028.3 hPa | 0 mm | - | 749 W/m² | - |
| 1777376882 | 12.22° C | 32% | 1028.4 hPa | 0 mm | - | 742 W/m² | - |
| 1777376282 | 11.67° C | 36% | 1028.3 hPa | 0 mm | - | 747 W/m² | - |
| 1777375682 | 10° C | 36% | 1028.5 hPa | 0 mm | - | 759 W/m² | - |
| 1777375082 | 11.11° C | 33% | 1028.4 hPa | 0 mm | - | 795 W/m² | - |
| 1777374483 | 10.56° C | 35% | 1028.3 hPa | 0 mm | - | 814 W/m² | - |
| 1777373885 | 10.56° C | 34% | 1028.3 hPa | 0 mm | - | 816 W/m² | - |
| 1777373287 | 9.44° C | 37% | 1028.3 hPa | 0 mm | - | 680 W/m² | - |
| 1777372683 | 10.56° C | 36% | 1028.4 hPa | 0 mm | - | 788 W/m² | - |
| 1777372085 | 10.56° C | 37% | 1028.6 hPa | 0 mm | - | 754 W/m² | - |
| 1777371481 | 9.44° C | 38% | 1028.6 hPa | 0 mm | - | 770 W/m² | - |
| 1777370871 | 9.44° C | 34% | 1028.6 hPa | 0 mm | - | 805 W/m² | - |
* Rain latest hour (hover to see other rain measurements)
** Current wind speed in m/s (hover to see current wind gust speed)